Time,TemperatureF,DewpointF,PressureIn,WindDirection,WindDirectionDegrees,WindSpeedMPH,WindSpeedGustMPH,Humidity,HourlyPrecipIn,Conditions,Clouds,dailyrainin,SoftwareType,DateUTC
2013-08-15 00:00:00,58.9,48.7,30.02,NNW,327,4.0,6.0,69,0.00,,,0.00,Wunderground v.1.15,2013-08-15 04:00:00,
2013-08-15 00:05:00,58.9,48.7,30.02,WSW,242,4.0,6.0,69,0.00,,,0.00,Wunderground v.1.15,2013-08-15 04:05:00,
2013-08-15 00:10:00,58.9,48.7,30.02,NW,316,4.0,4.0,69,0.00,,,0.00,Wunderground v.1.15,2013-08-15 04:10:00,
2013-08-15 00:20:00,59.2,48.6,30.02,WSW,239,5.0,5.0,68,0.00,,,0.00,Wunderground v.1.15,2013-08-15 04:20:00,
2013-08-15 00:30:00,59.2,48.6,30.03,WSW,257,4.0,4.0,68,0.00,,,0.00,Wunderground v.1.15,2013-08-15 04:30:00,
2013-08-15 00:35:00,59.1,48.5,30.03,SW,230,5.0,5.0,68,0.00,,,0.00,Wunderground v.1.15,2013-08-15 04:35:00,
2013-08-15 00:45:00,58.8,48.6,30.03,WNW,298,4.0,7.0,69,0.00,,,0.00,Wunderground v.1.15,2013-08-15 04:45:00,
2013-08-15 00:50:00,58.6,48.5,30.03,SW,219,4.0,4.0,69,0.00,,,0.00,Wunderground v.1.15,2013-08-15 04:50:00,
2013-08-15 00:55:00,58.4,48.7,30.03,WSW,237,4.0,5.0,70,0.00,,,0.00,Wunderground v.1.15,2013-08-15 04:55:00,
2013-08-15 01:00:00,58.0,48.3,30.03,SW,221,4.0,4.0,70,0.00,,,0.00,Wunderground v.1.15,2013-08-15 05:00:00,
2013-08-15 01:10:00,57.9,48.2,30.03,SSW,209,3.0,3.0,70,0.00,,,0.00,Wunderground v.1.15,2013-08-15 05:10:00,
2013-08-15 01:15:00,57.9,48.2,30.03,WSW,251,2.0,5.0,70,0.00,,,0.00,Wunderground v.1.15,2013-08-15 05:15:00,
2013-08-15 01:20:00,57.9,48.2,30.03,SW,214,2.0,2.0,70,0.00,,,0.00,Wunderground v.1.15,2013-08-15 05:20:00,
2013-08-15 01:25:00,57.5,48.2,30.03,SW,222,1.0,2.0,71,0.00,,,0.00,Wunderground v.1.15,2013-08-15 05:25:00,
2013-08-15 01:30:00,57.3,48.3,30.03,South,186,1.0,1.0,72,0.00,,,0.00,Wunderground v.1.15,2013-08-15 05:30:00,
2013-08-15 01:35:00,57.1,47.8,30.03,WSW,243,1.0,1.0,71,0.00,,,0.00,Wunderground v.1.15,2013-08-15 05:35:00,
2013-08-15 01:40:00,57.2,47.9,30.03,WNW,284,1.0,1.0,71,0.00,,,0.00,Wunderground v.1.15,2013-08-15 05:40:00,
2013-08-15 01:45:00,57.2,47.9,30.03,WSW,257,1.0,4.0,71,0.00,,,0.00,Wunderground v.1.15,2013-08-15 05:45:00,
2013-08-15 01:50:00,57.5,47.8,30.03,SW,222,2.0,3.0,70,0.00,,,0.00,Wunderground v.1.15,2013-08-15 05:50:00,
2013-08-15 01:55:00,57.6,47.9,30.03,WNW,293,3.0,3.0,70,0.00,,,0.00,Wunderground v.1.15,2013-08-15 05:55:00,
2013-08-15 02:00:00,58.1,48.0,30.03,WSW,242,2.0,3.0,69,0.00,,,0.00,Wunderground v.1.15,2013-08-15 06:00:00,
2013-08-15 02:05:00,58.2,47.7,30.04,WSW,254,3.0,3.0,68,0.00,,,0.00,Wunderground v.1.15,2013-08-15 06:05:00,
2013-08-15 02:10:00,58.0,47.9,30.04,WSW,250,3.0,3.0,69,0.00,,,0.00,Wunderground v.1.15,2013-08-15 06:10:00,
2013-08-15 02:15:00,57.8,47.7,30.04,South,187,3.0,3.0,69,0.00,,,0.00,Wunderground v.1.15,2013-08-15 06:15:00,
2013-08-15 02:25:00,57.5,47.4,30.04,WSW,245,2.0,4.0,69,0.00,,,0.00,Wunderground v.1.15,2013-08-15 06:25:00,
2013-08-15 02:30:00,57.4,47.3,30.04,WSW,243,2.0,2.0,69,0.00,,,0.00,Wunderground v.1.15,2013-08-15 06:30:00,
2013-08-15 02:35:00,57.2,47.5,30.04,West,269,2.0,2.0,70,0.00,,,0.00,Wunderground v.1.15,2013-08-15 06:35:00,
2013-08-15 02:40:00,57.5,47.4,30.04,South,173,2.0,3.0,69,0.00,,,0.00,Wunderground v.1.15,2013-08-15 06:40:00,
2013-08-15 02:45:00,57.4,47.3,30.04,SW,223,2.0,3.0,69,0.00,,,0.00,Wunderground v.1.15,2013-08-15 06:45:00,
2013-08-15 02:50:00,56.9,47.6,30.05,SSW,194,2.0,3.0,71,0.00,,,0.00,Wunderground v.1.15,2013-08-15 06:50:00,
2013-08-15 02:55:00,56.4,47.5,30.05,SW,227,2.0,3.0,72,0.00,,,0.00,Wunderground v.1.15,2013-08-15 06:55:00,
2013-08-15 03:00:00,56.0,47.8,30.05,WSW,252,2.0,2.0,74,0.00,,,0.00,Wunderground v.1.15,2013-08-15 07:00:00,
2013-08-15 03:05:00,55.7,47.9,30.05,WSW,244,2.0,2.0,75,0.00,,,0.00,Wunderground v.1.15,2013-08-15 07:05:00,
2013-08-15 03:10:00,55.3,47.9,30.05,SSW,198,2.0,2.0,76,0.00,,,0.00,Wunderground v.1.15,2013-08-15 07:10:00,
2013-08-15 03:15:00,55.1,47.7,30.05,SW,224,2.0,3.0,76,0.00,,,0.00,Wunderground v.1.15,2013-08-15 07:15:00,
2013-08-15 03:20:00,55.0,47.6,30.05,SW,228,3.0,3.0,76,0.00,,,0.00,Wunderground v.1.15,2013-08-15 07:20:00,
2013-08-15 03:25:00,55.0,47.6,30.05,West,259,3.0,5.0,76,0.00,,,0.00,Wunderground v.1.15,2013-08-15 07:25:00,
2013-08-15 03:30:00,55.1,47.7,30.05,WSW,249,4.0,5.0,76,0.00,,,0.00,Wunderground v.1.15,2013-08-15 07:30:00,
2013-08-15 03:35:00,55.1,47.7,30.05,SW,232,5.0,8.0,76,0.00,,,0.00,Wunderground v.1.15,2013-08-15 07:35:00,
2013-08-15 03:40:00,55.1,47.7,30.05,West,269,5.0,5.0,76,0.00,,,0.00,Wunderground v.1.15,2013-08-15 07:40:00,
2013-08-15 03:45:00,55.1,47.7,30.05,SW,231,5.0,5.0,76,0.00,,,0.00,Wunderground v.1.15,2013-08-15 07:45:00,
2013-08-15 03:50:00,55.1,47.7,30.05,WSW,241,5.0,5.0,76,0.00,,,0.00,Wunderground v.1.15,2013-08-15 07:50:00,
2013-08-15 03:55:00,55.1,47.7,30.05,SW,217,5.0,9.0,76,0.00,,,0.00,Wunderground v.1.15,2013-08-15 07:55:00,
2013-08-15 04:00:00,55.3,47.9,30.05,SSW,194,6.0,7.0,76,0.00,,,0.00,Wunderground v.1.15,2013-08-15 08:00:00,
2013-08-15 04:05:00,55.3,47.5,30.06,SW,223,6.0,7.0,75,0.00,,,0.00,Wunderground v.1.15,2013-08-15 08:05:00,
2013-08-15 04:10:00,55.3,47.5,30.06,SW,229,6.0,6.0,75,0.00,,,0.00,Wunderground v.1.15,2013-08-15 08:10:00,
2013-08-15 04:15:00,55.3,47.5,30.06,WSW,245,5.0,9.0,75,0.00,,,0.00,Wunderground v.1.15,2013-08-15 08:15:00,
2013-08-15 04:20:00,55.2,47.8,30.06,SW,230,5.0,5.0,76,0.00,,,0.00,Wunderground v.1.15,2013-08-15 08:20:00,
2013-08-15 04:25:00,55.4,47.2,30.05,SW,231,4.0,5.0,74,0.00,,,0.00,Wunderground v.1.15,2013-08-15 08:25:00,
2013-08-15 04:30:00,55.6,47.4,30.06,WSW,246,4.0,4.0,74,0.00,,,0.00,Wunderground v.1.15,2013-08-15 08:30:00,
2013-08-15 04:35:00,55.6,47.1,30.06,SW,229,4.0,4.0,73,0.00,,,0.00,Wunderground v.1.15,2013-08-15 08:35:00,
2013-08-15 04:40:00,55.4,47.2,30.06,SW,236,3.0,3.0,74,0.00,,,0.00,Wunderground v.1.15,2013-08-15 08:40:00,
2013-08-15 04:45:00,55.2,47.4,30.06,SW,236,3.0,5.0,75,0.00,,,0.00,Wunderground v.1.15,2013-08-15 08:45:00,
2013-08-15 04:50:00,55.1,47.7,30.06,WSW,251,4.0,4.0,76,0.00,,,0.00,Wunderground v.1.15,2013-08-15 08:50:00,
2013-08-15 04:55:00,54.9,47.5,30.06,WSW,254,4.0,10.0,76,0.00,,,0.00,Wunderground v.1.15,2013-08-15 08:55:00,
2013-08-15 05:00:00,54.9,47.5,30.06,SW,232,5.0,5.0,76,0.00,,,0.00,Wunderground v.1.15,2013-08-15 09:00:00,
2013-08-15 05:05:00,54.8,47.7,30.07,WSW,241,4.0,5.0,77,0.00,,,0.00,Wunderground v.1.15,2013-08-15 09:05:00,
2013-08-15 05:15:00,54.5,47.8,30.08,SW,227,4.0,4.0,78,0.00,,,0.00,Wunderground v.1.15,2013-08-15 09:15:00,
2013-08-15 05:20:00,54.9,47.5,30.08,WSW,257,5.0,10.0,76,0.00,,,0.00,Wunderground v.1.15,2013-08-15 09:20:00,
2013-08-15 05:25:00,55.1,47.7,30.08,SW,219,5.0,10.0,76,0.00,,,0.00,Wunderground v.1.15,2013-08-15 09:25:00,
2013-08-15 05:30:00,55.1,47.7,30.08,WSW,242,5.0,5.0,76,0.00,,,0.00,Wunderground v.1.15,2013-08-15 09:30:00,
2013-08-15 05:40:00,55.0,47.6,30.08,WSW,255,3.0,3.0,76,0.00,,,0.00,Wunderground v.1.15,2013-08-15 09:40:00,
2013-08-15 05:45:00,55.0,47.2,30.08,SW,215,3.0,3.0,75,0.00,,,0.00,Wunderground v.1.15,2013-08-15 09:45:00,
2013-08-15 05:50:00,55.0,47.2,30.09,SSW,209,3.0,3.0,75,0.00,,,0.00,Wunderground v.1.15,2013-08-15 09:50:00,
2013-08-15 05:55:00,55.1,47.3,30.09,SW,229,3.0,3.0,75,0.00,,,0.00,Wunderground v.1.15,2013-08-15 09:55:00,
2013-08-15 06:00:00,55.2,47.4,30.09,SW,229,3.0,5.0,75,0.00,,,0.00,Wunderground v.1.15,2013-08-15 10:00:00,
2013-08-15 06:05:00,55.3,47.5,30.09,West,260,4.0,5.0,75,0.00,,,0.00,Wunderground v.1.15,2013-08-15 10:05:00,
2013-08-15 06:10:00,55.1,47.7,30.10,SW,219,4.0,4.0,76,0.00,,,0.00,Wunderground v.1.15,2013-08-15 10:10:00,
2013-08-15 06:15:00,55.1,47.7,30.10,SW,223,3.0,7.0,76,0.00,,,0.00,Wunderground v.1.15,2013-08-15 10:15:00,
2013-08-15 06:20:00,55.4,48.0,30.10,SW,227,4.0,4.0,76,0.00,,,0.00,Wunderground v.1.15,2013-08-15 10:20:00,
2013-08-15 06:25:00,55.2,47.8,30.10,WSW,245,4.0,4.0,76,0.00,,,0.00,Wunderground v.1.15,2013-08-15 10:25:00,
2013-08-15 06:30:00,55.1,48.0,30.11,SW,225,4.0,4.0,77,0.00,,,0.00,Wunderground v.1.15,2013-08-15 10:30:00,
2013-08-15 06:35:00,55.1,48.0,30.11,SW,218,4.0,4.0,77,0.00,,,0.00,Wunderground v.1.15,2013-08-15 10:35:00,
2013-08-15 06:40:00,55.4,48.0,30.11,SSW,194,4.0,4.0,76,0.00,,,0.00,Wunderground v.1.15,2013-08-15 10:40:00,
2013-08-15 06:45:00,55.5,48.1,30.11,West,261,4.0,4.0,76,0.00,,,0.00,Wunderground v.1.15,2013-08-15 10:45:00,
2013-08-15 06:50:00,55.5,48.1,30.11,SW,235,4.0,4.0,76,0.00,,,0.00,Wunderground v.1.15,2013-08-15 10:50:00,
2013-08-15 06:55:00,55.6,48.2,30.11,WSW,249,4.0,4.0,76,0.00,,,0.00,Wunderground v.1.15,2013-08-15 10:55:00,
2013-08-15 07:00:00,55.6,48.5,30.11,SW,236,4.0,4.0,77,0.00,,,0.00,Wunderground v.1.15,2013-08-15 11:00:00,
2013-08-15 07:10:00,55.7,48.2,30.12,South,177,5.0,9.0,76,0.00,,,0.00,Wunderground v.1.15,2013-08-15 11:10:00,
2013-08-15 07:20:00,56.3,48.5,30.12,SW,218,7.0,10.0,75,0.00,,,0.00,Wunderground v.1.15,2013-08-15 11:20:00,
2013-08-15 07:25:00,56.4,48.6,30.13,South,190,7.0,10.0,75,0.00,,,0.00,Wunderground v.1.15,2013-08-15 11:25:00,
2013-08-15 07:30:00,56.3,48.8,30.13,West,265,5.0,5.0,76,0.00,,,0.00,Wunderground v.1.15,2013-08-15 11:30:00,
2013-08-15 07:35:00,56.5,49.4,30.13,SSW,209,3.0,5.0,77,0.00,,,0.00,Wunderground v.1.15,2013-08-15 11:35:00,
2013-08-15 07:45:00,56.5,49.0,30.13,SW,217,4.0,9.0,76,0.00,,,0.00,Wunderground v.1.15,2013-08-15 11:45:00,
2013-08-15 07:50:00,56.6,48.8,30.14,WSW,246,4.0,10.0,75,0.00,,,0.00,Wunderground v.1.15,2013-08-15 11:50:00,
2013-08-15 08:00:00,57.2,49.3,30.13,WNW,283,4.0,5.0,75,0.00,,,0.00,Wunderground v.1.15,2013-08-15 12:00:00,
2013-08-15 08:05:00,57.2,49.7,30.14,SW,231,4.0,5.0,76,0.00,,,0.00,Wunderground v.1.15,2013-08-15 12:05:00,
2013-08-15 08:10:00,57.5,49.6,30.13,WSW,248,4.0,4.0,75,0.00,,,0.00,Wunderground v.1.15,2013-08-15 12:10:00,
2013-08-15 08:15:00,57.8,49.6,30.13,SW,229,4.0,4.0,74,0.00,,,0.00,Wunderground v.1.15,2013-08-15 12:15:00,
2013-08-15 08:20:00,58.0,49.8,30.13,SW,236,4.0,4.0,74,0.00,,,0.00,Wunderground v.1.15,2013-08-15 12:20:00,
2013-08-15 08:25:00,58.4,49.8,30.13,WSW,241,4.0,4.0,73,0.00,,,0.00,Wunderground v.1.15,2013-08-15 12:25:00,
2013-08-15 08:30:00,58.7,50.1,30.13,West,268,4.0,6.0,73,0.00,,,0.00,Wunderground v.1.15,2013-08-15 12:30:00,
2013-08-15 08:35:00,59.1,49.3,30.13,West,259,4.0,6.0,70,0.00,,,0.00,Wunderground v.1.15,2013-08-15 12:35:00,
2013-08-15 08:40:00,59.3,49.9,30.13,WSW,254,5.0,6.0,71,0.00,,,0.00,Wunderground v.1.15,2013-08-15 12:40:00,
2013-08-15 08:45:00,59.6,49.8,30.13,WSW,237,4.0,8.0,70,0.00,,,0.00,Wunderground v.1.15,2013-08-15 12:45:00,
2013-08-15 08:50:00,59.6,50.2,30.13,West,274,5.0,5.0,71,0.00,,,0.00,Wunderground v.1.15,2013-08-15 12:50:00,
2013-08-15 08:55:00,59.8,50.4,30.13,SW,219,5.0,5.0,71,0.00,,,0.00,Wunderground v.1.15,2013-08-15 12:55:00,
2013-08-15 09:00:00,60.0,50.9,30.13,West,279,3.0,5.0,72,0.00,,,0.00,Wunderground v.1.15,2013-08-15 13:00:00,
2013-08-15 09:10:00,59.9,51.2,30.13,WSW,238,4.0,4.0,73,0.00,,,0.00,Wunderground v.1.15,2013-08-15 13:10:00,
2013-08-15 09:15:00,60.1,51.4,30.14,SW,222,5.0,6.0,73,0.00,,,0.00,Wunderground v.1.15,2013-08-15 13:15:00,
2013-08-15 09:20:00,60.3,51.6,30.14,WSW,253,5.0,6.0,73,0.00,,,0.00,Wunderground v.1.15,2013-08-15 13:20:00,
2013-08-15 09:25:00,60.8,51.3,30.14,WNW,290,4.0,6.0,71,0.00,,,0.00,Wunderground v.1.15,2013-08-15 13:25:00,
2013-08-15 09:35:00,61.4,51.9,30.14,West,280,4.0,7.0,71,0.00,,,0.00,Wunderground v.1.15,2013-08-15 13:35:00,
2013-08-15 09:40:00,61.5,51.2,30.14,West,271,5.0,5.0,69,0.00,,,0.00,Wunderground v.1.15,2013-08-15 13:40:00,
2013-08-15 09:45:00,61.7,50.6,30.14,West,265,5.0,5.0,67,0.00,,,0.00,Wunderground v.1.15,2013-08-15 13:45:00,
2013-08-15 09:50:00,61.8,50.7,30.14,WSW,240,6.0,6.0,67,0.00,,,0.00,Wunderground v.1.15,2013-08-15 13:50:00,
2013-08-15 09:55:00,61.9,51.2,30.14,WNW,288,6.0,6.0,68,0.00,,,0.00,Wunderground v.1.15,2013-08-15 13:55:00,
2013-08-15 10:00:00,62.1,50.6,30.14,WSW,244,6.0,11.0,66,0.00,,,0.00,Wunderground v.1.15,2013-08-15 14:00:00,
2013-08-15 10:05:00,62.2,50.7,30.14,West,270,6.0,11.0,66,0.00,,,0.00,Wunderground v.1.15,2013-08-15 14:05:00,
2013-08-15 10:10:00,62.6,51.9,30.14,SW,227,5.0,8.0,68,0.00,,,0.00,Wunderground v.1.15,2013-08-15 14:10:00,
2013-08-15 10:20:00,63.0,51.0,30.14,WSW,257,6.0,6.0,65,0.00,,,0.00,Wunderground v.1.15,2013-08-15 14:20:00,
2013-08-15 10:25:00,63.1,51.1,30.14,SW,236,6.0,6.0,65,0.00,,,0.00,Wunderground v.1.15,2013-08-15 14:25:00,
2013-08-15 10:30:00,63.5,51.5,30.14,WSW,240,4.0,4.0,65,0.00,,,0.00,Wunderground v.1.15,2013-08-15 14:30:00,
2013-08-15 10:35:00,63.7,51.7,30.14,WSW,240,4.0,4.0,65,0.00,,,0.00,Wunderground v.1.15,2013-08-15 14:35:00,
2013-08-15 10:40:00,63.9,51.1,30.14,West,267,4.0,5.0,63,0.00,,,0.00,Wunderground v.1.15,2013-08-15 14:40:00,
2013-08-15 10:55:00,64.4,50.7,30.14,WSW,248,5.0,5.0,61,0.00,,,0.00,Wunderground v.1.15,2013-08-15 14:55:00,
2013-08-15 11:00:00,64.8,51.0,30.14,West,277,6.0,6.0,61,0.00,,,0.00,Wunderground v.1.15,2013-08-15 15:00:00,
2013-08-15 11:05:00,65.0,51.7,30.14,NW,311,5.0,6.0,62,0.00,,,0.00,Wunderground v.1.15,2013-08-15 15:05:00,
2013-08-15 11:10:00,65.2,51.4,30.14,South,190,4.0,4.0,61,0.00,,,0.00,Wunderground v.1.15,2013-08-15 15:10:00,
2013-08-15 11:15:00,65.2,51.4,30.14,SW,231,5.0,5.0,61,0.00,,,0.00,Wunderground v.1.15,2013-08-15 15:15:00,
2013-08-15 11:25:00,65.8,51.5,30.14,West,264,5.0,9.0,60,0.00,,,0.00,Wunderground v.1.15,2013-08-15 15:25:00,
2013-08-15 11:30:00,66.1,51.8,30.14,WSW,245,5.0,6.0,60,0.00,,,0.00,Wunderground v.1.15,2013-08-15 15:30:00,
2013-08-15 11:35:00,66.3,52.0,30.14,WNW,294,5.0,6.0,60,0.00,,,0.00,Wunderground v.1.15,2013-08-15 15:35:00,
2013-08-15 11:40:00,66.5,52.6,30.13,WNW,283,5.0,5.0,61,0.00,,,0.00,Wunderground v.1.15,2013-08-15 15:40:00,
2013-08-15 11:45:00,66.7,52.8,30.13,WSW,252,6.0,9.0,61,0.00,,,0.00,Wunderground v.1.15,2013-08-15 15:45:00,
2013-08-15 11:50:00,66.3,51.1,30.14,WSW,257,6.0,7.0,58,0.00,,,0.00,Wunderground v.1.15,2013-08-15 15:50:00,
2013-08-15 11:55:00,66.2,52.3,30.14,West,261,4.0,7.0,61,0.00,,,0.00,Wunderground v.1.15,2013-08-15 15:55:00,
2013-08-15 12:05:00,65.9,51.2,30.13,SW,221,4.0,7.0,59,0.00,,,0.00,Wunderground v.1.15,2013-08-15 16:05:00,
2013-08-15 12:10:00,65.6,50.4,30.13,West,272,6.0,7.0,58,0.00,,,0.00,Wunderground v.1.15,2013-08-15 16:10:00,
2013-08-15 12:15:00,65.9,49.8,30.14,WNW,290,6.0,7.0,56,0.00,,,0.00,Wunderground v.1.15,2013-08-15 16:15:00,
2013-08-15 12:20:00,66.3,49.6,30.13,WNW,300,4.0,7.0,55,0.00,,,0.00,Wunderground v.1.15,2013-08-15 16:20:00,
2013-08-15 12:25:00,66.3,50.1,30.13,NNW,340,4.0,6.0,56,0.00,,,0.00,Wunderground v.1.15,2013-08-15 16:25:00,
2013-08-15 12:35:00,66.4,49.2,30.13,NW,317,4.0,4.0,54,0.00,,,0.00,Wunderground v.1.15,2013-08-15 16:35:00,
2013-08-15 12:40:00,67.2,51.0,30.13,WNW,285,3.0,7.0,56,0.00,,,0.00,Wunderground v.1.15,2013-08-15 16:40:00,
2013-08-15 12:45:00,67.0,51.3,30.13,NW,314,4.0,4.0,57,0.00,,,0.00,Wunderground v.1.15,2013-08-15 16:45:00,
2013-08-15 12:55:00,67.1,49.9,30.13,West,261,5.0,6.0,54,0.00,,,0.00,Wunderground v.1.15,2013-08-15 16:55:00,
2013-08-15 13:00:00,66.7,49.5,30.13,NNW,334,6.0,6.0,54,0.00,,,0.00,Wunderground v.1.15,2013-08-15 17:00:00,
2013-08-15 13:05:00,66.7,50.5,30.13,WSW,242,4.0,6.0,56,0.00,,,0.00,Wunderground v.1.15,2013-08-15 17:05:00,
2013-08-15 13:10:00,67.2,49.5,30.13,North,5,2.0,4.0,53,0.00,,,0.00,Wunderground v.1.15,2013-08-15 17:10:00,
2013-08-15 13:15:00,67.6,48.8,30.13,West,272,3.0,4.0,51,0.00,,,0.00,Wunderground v.1.15,2013-08-15 17:15:00,
2013-08-15 13:20:00,68.7,49.8,30.13,WNW,288,2.0,2.0,51,0.00,,,0.00,Wunderground v.1.15,2013-08-15 17:20:00,
2013-08-15 13:30:00,68.2,50.4,30.13,WSW,248,5.0,5.0,53,0.00,,,0.00,Wunderground v.1.15,2013-08-15 17:30:00,
2013-08-15 13:35:00,68.5,50.7,30.13,WSW,242,4.0,5.0,53,0.00,,,0.00,Wunderground v.1.15,2013-08-15 17:35:00,
2013-08-15 13:40:00,68.9,49.5,30.12,NW,315,2.0,2.0,50,0.00,,,0.00,Wunderground v.1.15,2013-08-15 17:40:00,
2013-08-15 13:45:00,69.0,50.1,30.12,WNW,289,4.0,4.0,51,0.00,,,0.00,Wunderground v.1.15,2013-08-15 17:45:00,
2013-08-15 13:55:00,69.0,50.1,30.12,North,355,5.0,9.0,51,0.00,,,0.00,Wunderground v.1.15,2013-08-15 17:55:00,
2013-08-15 14:01:00,68.7,48.8,30.12,NE,56,4.0,4.0,49,0.00,,,0.00,Wunderground v.1.15,2013-08-15 18:01:00,
2013-08-15 14:06:00,68.7,49.8,30.12,West,265,3.0,4.0,51,0.00,,,0.00,Wunderground v.1.15,2013-08-15 18:06:00,
2013-08-15 14:10:00,69.3,50.9,30.12,WSW,255,3.0,3.0,52,0.00,,,0.00,Wunderground v.1.15,2013-08-15 18:10:00,
2013-08-15 14:15:00,69.7,50.8,30.11,West,272,4.0,6.0,51,0.00,,,0.00,Wunderground v.1.15,2013-08-15 18:15:00,
2013-08-15 14:35:00,69.7,50.8,30.11,North,349,3.0,5.0,51,0.00,,,0.00,Wunderground v.1.15,2013-08-15 18:35:00,
2013-08-15 14:40:00,69.4,49.4,30.11,West,260,4.0,6.0,49,0.00,,,0.00,Wunderground v.1.15,2013-08-15 18:40:00,
2013-08-15 14:45:00,70.1,51.1,30.11,SW,230,5.0,6.0,51,0.00,,,0.00,Wunderground v.1.15,2013-08-15 18:45:00,
2013-08-15 14:55:00,70.1,53.2,30.11,WSW,238,3.0,4.0,55,0.00,,,0.00,Wunderground v.1.15,2013-08-15 18:55:00,
2013-08-15 15:00:00,69.5,51.6,30.12,WNW,298,3.0,3.0,53,0.00,,,0.00,Wunderground v.1.15,2013-08-15 19:00:00,
2013-08-15 15:05:00,69.0,50.6,30.12,West,269,3.0,3.0,52,0.00,,,0.00,Wunderground v.1.15,2013-08-15 19:05:00,
2013-08-15 15:10:00,69.7,52.8,30.11,NW,313,3.0,5.0,55,0.00,,,0.00,Wunderground v.1.15,2013-08-15 19:10:00,
2013-08-15 15:20:00,69.7,50.8,30.12,WSW,239,7.0,9.0,51,0.00,,,0.00,Wunderground v.1.15,2013-08-15 19:20:00,
2013-08-15 15:25:00,69.4,51.5,30.12,West,273,5.0,9.0,53,0.00,,,0.00,Wunderground v.1.15,2013-08-15 19:25:00,
2013-08-15 15:30:00,69.6,53.2,30.11,West,261,5.0,5.0,56,0.00,,,0.00,Wunderground v.1.15,2013-08-15 19:30:00,
2013-08-15 15:35:00,70.3,51.3,30.12,NNW,340,6.0,9.0,51,0.00,,,0.00,Wunderground v.1.15,2013-08-15 19:35:00,
2013-08-15 15:40:00,70.3,51.8,30.12,WSW,244,7.0,7.0,52,0.00,,,0.00,Wunderground v.1.15,2013-08-15 19:40:00,
2013-08-15 15:45:00,70.0,51.0,30.12,South,173,7.0,7.0,51,0.00,,,0.00,Wunderground v.1.15,2013-08-15 19:45:00,
2013-08-15 15:55:00,70.2,52.8,30.12,West,263,6.0,9.0,54,0.00,,,0.00,Wunderground v.1.15,2013-08-15 19:55:00,
2013-08-15 16:00:00,70.1,52.2,30.12,West,279,6.0,6.0,53,0.00,,,0.00,Wunderground v.1.15,2013-08-15 20:00:00,
2013-08-15 16:10:00,70.0,51.6,30.12,WSW,250,7.0,11.0,52,0.00,,,0.00,Wunderground v.1.15,2013-08-15 20:10:00,
2013-08-15 16:15:00,69.8,51.4,30.12,WSW,258,7.0,11.0,52,0.00,,,0.00,Wunderground v.1.15,2013-08-15 20:15:00,
2013-08-15 16:25:00,69.4,50.5,30.12,West,277,7.0,12.0,51,0.00,,,0.00,Wunderground v.1.15,2013-08-15 20:25:00,
2013-08-15 16:35:00,70.4,52.4,30.12,WNW,282,5.0,9.0,53,0.00,,,0.00,Wunderground v.1.15,2013-08-15 20:35:00,
2013-08-15 16:40:00,69.5,51.1,30.12,SSW,204,6.0,6.0,52,0.00,,,0.00,Wunderground v.1.15,2013-08-15 20:40:00,
2013-08-15 16:45:00,69.0,51.2,30.12,WNW,300,6.0,6.0,53,0.00,,,0.00,Wunderground v.1.15,2013-08-15 20:45:00,
2013-08-15 17:00:00,69.5,52.1,30.11,WSW,256,7.0,7.0,54,0.00,,,0.00,Wunderground v.1.15,2013-08-15 21:00:00,
2013-08-15 17:05:00,69.5,52.1,30.11,WSW,251,6.0,7.0,54,0.00,,,0.00,Wunderground v.1.15,2013-08-15 21:05:00,
2013-08-15 17:10:00,69.7,52.3,30.12,WNW,298,5.0,5.0,54,0.00,,,0.00,Wunderground v.1.15,2013-08-15 21:10:00,
2013-08-15 17:15:00,69.7,52.8,30.11,West,271,4.0,5.0,55,0.00,,,0.00,Wunderground v.1.15,2013-08-15 21:15:00,
2013-08-15 17:20:00,69.5,51.1,30.11,SSW,209,6.0,6.0,52,0.00,,,0.00,Wunderground v.1.15,2013-08-15 21:20:00,
2013-08-15 17:25:00,69.5,52.1,30.11,West,280,6.0,6.0,54,0.00,,,0.00,Wunderground v.1.15,2013-08-15 21:25:00,
2013-08-15 17:35:00,69.3,51.9,30.11,SSW,213,6.0,13.0,54,0.00,,,0.00,Wunderground v.1.15,2013-08-15 21:35:00,
2013-08-15 17:40:00,69.1,50.7,30.11,SW,216,7.0,7.0,52,0.00,,,0.00,Wunderground v.1.15,2013-08-15 21:40:00,
2013-08-15 17:50:00,69.1,52.2,30.11,West,267,6.0,10.0,55,0.00,,,0.00,Wunderground v.1.15,2013-08-15 21:50:00,
2013-08-15 17:55:00,68.9,51.1,30.11,WNW,290,6.0,11.0,53,0.00,,,0.00,Wunderground v.1.15,2013-08-15 21:55:00,
2013-08-15 18:00:00,68.9,51.6,30.11,WNW,288,6.0,6.0,54,0.00,,,0.00,Wunderground v.1.15,2013-08-15 22:00:00,
2013-08-15 18:10:00,69.1,51.2,30.12,West,279,4.0,4.0,53,0.00,,,0.00,Wunderground v.1.15,2013-08-15 22:10:00,
2013-08-15 18:15:00,69.2,51.8,30.12,WNW,294,3.0,4.0,54,0.00,,,0.00,Wunderground v.1.15,2013-08-15 22:15:00,
2013-08-15 18:20:00,69.1,52.2,30.12,WSW,253,4.0,4.0,55,0.00,,,0.00,Wunderground v.1.15,2013-08-15 22:20:00,
2013-08-15 18:25:00,69.0,51.2,30.12,West,278,3.0,4.0,53,0.00,,,0.00,Wunderground v.1.15,2013-08-15 22:25:00,
2013-08-15 18:30:00,68.9,52.6,30.12,West,264,3.0,3.0,56,0.00,,,0.00,Wunderground v.1.15,2013-08-15 22:30:00,
2013-08-15 18:35:00,68.9,51.6,30.12,West,262,3.0,3.0,54,0.00,,,0.00,Wunderground v.1.15,2013-08-15 22:35:00,
2013-08-15 18:40:00,68.9,52.1,30.12,West,281,3.0,3.0,55,0.00,,,0.00,Wunderground v.1.15,2013-08-15 22:40:00,
2013-08-15 18:45:00,69.0,52.2,30.12,WSW,241,2.0,3.0,55,0.00,,,0.00,Wunderground v.1.15,2013-08-15 22:45:00,
2013-08-15 18:50:00,69.0,53.1,30.12,West,262,2.0,3.0,57,0.00,,,0.00,Wunderground v.1.15,2013-08-15 22:50:00,
2013-08-15 18:55:00,68.7,52.4,30.12,SW,233,2.0,3.0,56,0.00,,,0.00,Wunderground v.1.15,2013-08-15 22:55:00,
2013-08-15 19:05:00,68.0,52.2,30.13,SW,232,3.0,3.0,57,0.00,,,0.00,Wunderground v.1.15,2013-08-15 23:05:00,
2013-08-15 19:10:00,67.7,52.4,30.13,WSW,245,2.0,2.0,58,0.00,,,0.00,Wunderground v.1.15,2013-08-15 23:10:00,
2013-08-15 19:15:00,67.4,52.1,30.13,SW,227,2.0,2.0,58,0.00,,,0.00,Wunderground v.1.15,2013-08-15 23:15:00,
2013-08-15 19:20:00,67.2,51.9,30.13,WSW,249,2.0,2.0,58,0.00,,,0.00,Wunderground v.1.15,2013-08-15 23:20:00,
2013-08-15 19:25:00,67.0,51.7,30.13,SW,225,2.0,2.0,58,0.00,,,0.00,Wunderground v.1.15,2013-08-15 23:25:00,
2013-08-15 19:30:00,66.7,51.9,30.13,WSW,247,1.0,2.0,59,0.00,,,0.00,Wunderground v.1.15,2013-08-15 23:30:00,
2013-08-15 19:35:00,66.3,52.0,30.14,SW,215,1.0,2.0,60,0.00,,,0.00,Wunderground v.1.15,2013-08-15 23:35:00,
2013-08-15 19:45:00,65.3,51.5,30.14,SW,236,2.0,3.0,61,0.00,,,0.00,Wunderground v.1.15,2013-08-15 23:45:00,
2013-08-15 19:50:00,65.0,51.7,30.14,WSW,257,2.0,2.0,62,0.00,,,0.00,Wunderground v.1.15,2013-08-15 23:50:00,
2013-08-15 19:55:00,64.9,51.1,30.14,SW,224,2.0,2.0,61,0.00,,,0.00,Wunderground v.1.15,2013-08-15 23:55:00,
2013-08-15 20:05:00,64.8,51.0,30.14,SW,232,2.0,2.0,61,0.00,,,0.00,Wunderground v.1.15,2013-08-16 00:05:00,
2013-08-15 20:15:00,64.6,50.8,30.15,WSW,243,2.0,2.0,61,0.00,,,0.00,Wunderground v.1.15,2013-08-16 00:15:00,
2013-08-15 20:20:00,64.6,51.3,30.15,WSW,238,2.0,2.0,62,0.00,,,0.00,Wunderground v.1.15,2013-08-16 00:20:00,
2013-08-15 20:25:00,64.4,51.5,30.15,SW,234,2.0,2.0,63,0.00,,,0.00,Wunderground v.1.15,2013-08-16 00:25:00,
2013-08-15 20:30:00,64.3,51.4,30.16,SW,219,2.0,2.0,63,0.00,,,0.00,Wunderground v.1.15,2013-08-16 00:30:00,
2013-08-15 20:35:00,64.4,51.1,30.16,WSW,244,2.0,2.0,62,0.00,,,0.00,Wunderground v.1.15,2013-08-16 00:35:00,
2013-08-15 20:40:00,64.3,51.4,30.17,SW,231,2.0,3.0,63,0.00,,,0.00,Wunderground v.1.15,2013-08-16 00:40:00,
2013-08-15 20:50:00,64.4,51.1,30.17,South,179,3.0,3.0,62,0.00,,,0.00,Wunderground v.1.15,2013-08-16 00:50:00,
2013-08-15 20:55:00,64.5,51.2,30.17,SW,227,4.0,5.0,62,0.00,,,0.00,Wunderground v.1.15,2013-08-16 00:55:00,
2013-08-15 21:00:00,64.3,51.4,30.18,West,269,4.0,4.0,63,0.00,,,0.00,Wunderground v.1.15,2013-08-16 01:00:00,
2013-08-15 21:05:00,64.3,51.4,30.18,WSW,248,4.0,4.0,63,0.00,,,0.00,Wunderground v.1.15,2013-08-16 01:05:00,
2013-08-15 21:10:00,64.1,51.2,30.18,SSW,201,3.0,3.0,63,0.00,,,0.00,Wunderground v.1.15,2013-08-16 01:10:00,
2013-08-15 21:15:00,63.9,51.1,30.18,WSW,247,3.0,5.0,63,0.00,,,0.00,Wunderground v.1.15,2013-08-16 01:15:00,
2013-08-15 21:20:00,63.9,51.1,30.18,SW,230,3.0,3.0,63,0.00,,,0.00,Wunderground v.1.15,2013-08-16 01:20:00,
2013-08-15 21:25:00,63.9,51.1,30.18,WSW,248,3.0,3.0,63,0.00,,,0.00,Wunderground v.1.15,2013-08-16 01:25:00,
2013-08-15 21:30:00,63.8,51.0,30.18,SW,229,2.0,2.0,63,0.00,,,0.00,Wunderground v.1.15,2013-08-16 01:30:00,
2013-08-15 21:40:00,64.0,50.7,30.18,WNW,298,4.0,4.0,62,0.00,,,0.00,Wunderground v.1.15,2013-08-16 01:40:00,
2013-08-15 21:45:00,64.0,51.1,30.18,SW,224,4.0,4.0,63,0.00,,,0.00,Wunderground v.1.15,2013-08-16 01:45:00,
2013-08-15 21:50:00,63.9,51.1,30.18,SW,234,4.0,4.0,63,0.00,,,0.00,Wunderground v.1.15,2013-08-16 01:50:00,
2013-08-15 21:55:00,63.9,51.1,30.18,SW,227,5.0,5.0,63,0.00,,,0.00,Wunderground v.1.15,2013-08-16 01:55:00,
2013-08-15 22:00:00,63.6,50.8,30.18,WSW,248,5.0,5.0,63,0.00,,,0.00,Wunderground v.1.15,2013-08-16 02:00:00,
2013-08-15 22:05:00,63.4,50.6,30.18,SSW,194,4.0,5.0,63,0.00,,,0.00,Wunderground v.1.15,2013-08-16 02:05:00,
2013-08-15 22:10:00,63.4,51.0,30.18,West,261,3.0,3.0,64,0.00,,,0.00,Wunderground v.1.15,2013-08-16 02:10:00,
2013-08-15 22:15:00,63.3,50.9,30.18,SW,229,3.0,3.0,64,0.00,,,0.00,Wunderground v.1.15,2013-08-16 02:15:00,
2013-08-15 22:20:00,63.3,50.5,30.19,WSW,252,3.0,3.0,63,0.00,,,0.00,Wunderground v.1.15,2013-08-16 02:20:00,
2013-08-15 22:25:00,63.2,50.8,30.19,WSW,240,3.0,4.0,64,0.00,,,0.00,Wunderground v.1.15,2013-08-16 02:25:00,
2013-08-15 22:30:00,63.2,50.8,30.19,WSW,258,3.0,3.0,64,0.00,,,0.00,Wunderground v.1.15,2013-08-16 02:30:00,
2013-08-15 22:35:00,63.1,50.7,30.19,South,190,2.0,3.0,64,0.00,,,0.00,Wunderground v.1.15,2013-08-16 02:35:00,
2013-08-15 22:40:00,63.0,50.6,30.19,WSW,242,2.0,4.0,64,0.00,,,0.00,Wunderground v.1.15,2013-08-16 02:40:00,
2013-08-15 22:45:00,63.1,51.1,30.19,SW,230,2.0,6.0,65,0.00,,,0.00,Wunderground v.1.15,2013-08-16 02:45:00,
2013-08-15 22:50:00,63.3,50.9,30.19,West,261,3.0,4.0,64,0.00,,,0.00,Wunderground v.1.15,2013-08-16 02:50:00,
2013-08-15 22:55:00,63.3,51.3,30.19,SW,227,4.0,6.0,65,0.00,,,0.00,Wunderground v.1.15,2013-08-16 02:55:00,
2013-08-15 23:00:00,62.9,51.0,30.19,WSW,242,4.0,4.0,65,0.00,,,0.00,Wunderground v.1.15,2013-08-16 03:00:00,
2013-08-15 23:05:00,62.6,51.1,30.19,WSW,251,3.0,4.0,66,0.00,,,0.00,Wunderground v.1.15,2013-08-16 03:05:00,
2013-08-15 23:10:00,62.5,51.0,30.19,WSW,257,2.0,4.0,66,0.00,,,0.00,Wunderground v.1.15,2013-08-16 03:10:00,
2013-08-15 23:20:00,62.8,51.3,30.19,SW,231,3.0,3.0,66,0.00,,,0.00,Wunderground v.1.15,2013-08-16 03:20:00,
2013-08-15 23:25:00,62.7,51.2,30.19,WSW,246,3.0,3.0,66,0.00,,,0.00,Wunderground v.1.15,2013-08-16 03:25:00,
2013-08-15 23:30:00,62.6,51.1,30.19,WSW,238,2.0,2.0,66,0.00,,,0.00,Wunderground v.1.15,2013-08-16 03:30:00,
2013-08-15 23:35:00,62.6,51.1,30.20,West,281,2.0,4.0,66,0.00,,,0.00,Wunderground v.1.15,2013-08-16 03:35:00,
2013-08-15 23:40:00,62.5,51.4,30.20,SW,234,2.0,2.0,67,0.00,,,0.00,Wunderground v.1.15,2013-08-16 03:40:00,
2013-08-15 23:45:00,62.6,51.5,30.20,WSW,242,3.0,3.0,67,0.00,,,0.00,Wunderground v.1.15,2013-08-16 03:45:00,
2013-08-15 23:50:00,62.3,51.2,30.20,WSW,244,3.0,5.0,67,0.00,,,0.00,Wunderground v.1.15,2013-08-16 03:50:00,